Regional Weather Roundup
Issued by NWS

Home | Current Version | Previous Version | Text Only | Print | Product List | Glossary Off
Versions: 1 2 3 4 5 6 7 8 9 10 11 12 13 14 15 16 17 18 19 20 21 22 23 24 25 26 27

000
ASUS45 KBOI 171110
RWRID

IDAHO REGIONAL WEATHER ROUNDUP
NATIONAL WEATHER SERVICE BOISE ID
500 AM MDT THU AUG 17 2017

NOTE: "FAIR" INDICATES FEW OR NO CLOUDS BELOW 12000 FEET
WITH NO SIGNIFICANT WEATHER AND/OR OBSTRUCTIONS TO VISIBILITY

IDZ012-014-171200-
SOUTHWEST IDAHO


CITY           SKY/WX    TMP DP  RH WIND       PRES   REMARKS
BOISE          CLEAR     60  41  49 SE7       30.03R
CALDWELL       CLEAR     59  48  67 W5        30.02R
MOUNTAIN HOME  CLEAR     58  39  49 NW5       30.03R
$$

IDZ016-017-171200-
SOUTHCENTRAL IDAHO


CITY           SKY/WX    TMP DP  RH WIND       PRES   REMARKS
BURLEY         CLEAR     53  42  66 SW10      30.07R
JEROME         CLEAR     60  40  47 S6        30.08R
TWIN FALLS     CLEAR     63  36  36 S13       30.09R
$$

IDZ019>023-171200-
SOUTHEAST IDAHO


CITY           SKY/WX    TMP DP  RH WIND       PRES   REMARKS
IDAHO FALLS    CLEAR     61  40  45 SW15      30.08R
POCATELLO      CLEAR     53  36  52 CALM      30.09R
REXBURG        CLEAR     52  41  66 N5        30.07S
$$

IDZ006-010-011-018-031-032-171200-
CENTRAL IDAHO MOUNTAINS


CITY           SKY/WX    TMP DP  RH WIND       PRES   REMARKS
MCCALL         CLEAR     48  37  65 CALM      30.13R
HAILEY         CLEAR     52  39  62 NW9       30.14R
STANLEY          N/A     36  30  79 S3        30.24R
SALMON         CLEAR     48  38  68 CALM      30.09S
CHALLIS        CLEAR     50  37  61 CALM      30.13R
$$

IDZ002-004-006-007-026-171200-
NORTHERN IDAHO


CITY           SKY/WX    TMP DP  RH WIND       PRES   REMARKS
LEWISTON       CLEAR     67  43  41 S3        29.99R
LOWELL           N/A     55  47  74 CALM      30.05R
COEUR D`ALENE  CLEAR     60  48  64 SW8       29.99R
MULLAN PASS    PTCLDY    56  38  50 W6        30.16R
$$




USA.gov is the U.S. government's official web portal to all federal, state and local government web resources and services.